GW6445 Weather Reports


time (UTC)temp
C
wind
direction
speed
KPH
gust
KPH
rain 1hr
cm
rain 24hr
cm
rain mn
cm
humidity
%
barometer
mb
20260503203227 30 74 4.8 6.4 0.00 0.00 0.00 33 1008.3
20260503202719 30 100 3.2 9.7 0.00 0.00 0.00 33 1008.5
20260503202214 30 11 0.0 11.3 0.00 0.00 0.00 32 1008.5
20260503201919 30 355 4.8 8.0 0.00 0.00 0.00 32 1008.4
20260503201155 30 112 4.8 8.0 0.00 0.00 0.00 33 1008.5
20260503200641 30 355 9.7 9.7 0.00 0.00 0.00 33 1008.6
20260503200136 29 256 1.6 8.0 0.00 0.00 0.00 33 1008.6
20260503195628 30 122 3.2 9.7 0.00 0.00 0.00 33 1008.7
20260503195611 30 299 1.6 6.4 0.00 0.00 0.00 33 1008.8
20260503194616 29 22 4.8 8.0 0.00 0.00 0.00 34 1008.9
20260503194106 29 139 3.2 6.4 0.00 0.00 0.00 35 1009.0
20260503193601 30 140 0.0 6.4 0.00 0.00 0.00 34 1009.1
20260503193306 30 334 3.2 3.2 0.00 0.00 0.00 35 1009.1
20260503192542 29 94 0.0 4.8 0.00 0.00 0.00 37 1009.0
20260503192027 28 16 3.2 8.0 0.00 0.00 0.00 37 1009.1
20260503191523 28 86 1.6 8.0 0.00 0.00 0.00 37 1009.2
20260503191503 27 264 1.6 11.3 0.00 0.00 0.00 38 1009.2
20260503190509 27 0 4.8 11.3 0.00 0.00 0.00 38 1009.4
20260503185956 27 350 3.2 8.0 0.00 0.00 0.00 39 1009.4
20260503185451 27 357 6.4 11.3 0.00 0.00 0.00 39 1009.5
20260503184942 26 46 3.2 11.3 0.00 0.00 0.00 40 1009.7
20260503184658 26 27 6.4 8.0 0.00 0.00 0.00 40 1009.5
20260503184144 26 23 4.8 8.0 0.00 0.00 0.00 40 1009.7
20260503183419 26 311 3.2 11.3 0.00 0.00 0.00 40 1009.8
20260503182910 26 27 3.2 6.4 0.00 0.00 0.00 42 1009.8
20260503182405 26 121 3.2 3.2 0.00 0.00 0.00 44 1009.8
20260503181851 26 42 1.6 9.7 0.00 0.00 0.00 44 1010.1
20260503181347 25 290 3.2 6.4 0.00 0.00 0.00 44 1010.2
20260503180832 25 339 0.0 9.7 0.00 0.00 0.00 46 1010.0
20260503180327 25 341 3.2 6.4 0.00 0.00 0.00 46 1010.3
20260503180308 25 31 3.2 8.0 0.00 0.00 0.00 45 1010.2
20260503175755 25 77 3.2 4.8 0.00 0.00 0.00 46 1010.2
20260503174803 24 335 3.2 4.8 0.00 0.00 0.00 48 1010.5
20260503174255 23 142 1.6 6.4 0.00 0.00 0.00 49 1010.5
20260503173747 23 345 3.2 9.7 0.00 0.00 0.00 49 1010.4
20260503173236 23 356 4.8 6.4 0.00 0.00 0.00 50 1010.6
20260503172731 22 99 3.2 8.0 0.00 0.00 0.00 51 1010.6
20260503171712 22 251 4.8 6.4 0.00 0.00 0.00 51 1010.6
20260503171158 22 348 3.2 4.8 0.00 0.00 0.00 52 1010.8
20260503170654 22 216 3.2 6.4 0.00 0.00 0.00 52 1010.5
20260503170145 22 5 3.2 6.4 0.00 0.00 0.00 52 1010.6
20260503150329 17 322 0.0 3.2 0.00 0.00 0.00 72 1011.3
20260503140155 13 98 0.0 3.2 0.00 0.00 0.00 81 1011.3
20260503131035 14 113 0.0 3.2 0.00 0.00 0.00 77 1010.9
20260503130521 14 40 1.6 3.2 0.00 0.00 0.00 77 1010.8
20260503110659 15 323 1.6 3.2 0.00 0.00 0.00 78 1011.3
20260503110148 14 221 0.0 1.6 0.00 0.00 0.00 79 1011.1
20260503090328 13 122 0.0 3.2 0.00 0.00 0.00 91 1012.0
20260503081207 13 42 1.6 1.6 0.00 0.00 0.00 90 1011.9
20260503080658 13 309 1.6 1.6 0.00 0.00 0.00 90 1011.9
20260503080154 13 224 0.0 1.6 0.00 0.00 0.00 90 1012.0
20260503072552 13 340 1.6 3.2 0.00 0.00 0.00 88 1012.0
20260503072043 14 65 0.0 1.6 0.00 0.00 0.00 88 1012.1
20260503071539 14 0 0.0 3.2 0.00 0.00 0.00 88 1011.9
20260503071025 14 37 0.0 1.6 0.00 0.00 0.00 88 1012.0
20260503070519 14 247 0.0 3.2 0.00 0.00 0.00 87 1012.0
20260503070231 14 44 0.0 0.0 0.00 0.00 0.00 86 1011.9
20260503054824 16 269 0.0 1.6 0.00 0.00 0.00 80 1011.6
20260503054319 16 55 0.0 1.6 0.00 0.00 0.00 79 1011.4
20260503053811 16 206 0.0 1.6 0.00 0.00 0.00 78 1011.3
20260503053306 16 106 3.2 4.8 0.00 0.00 0.00 78 1011.5
20260503052753 16 70 1.6 3.2 0.00 0.00 0.00 79 1011.4
20260503052247 15 166 0.0 3.2 0.00 0.00 0.00 82 1011.7
20260503051739 16 48 0.0 1.6 0.00 0.00 0.00 81 1011.7
20260503051235 16 358 1.6 4.8 0.00 0.00 0.00 81 1012.0
20260503050727 16 315 1.6 1.6 0.00 0.00 0.00 80 1012.2
20260503050219 16 32 3.2 3.2 0.00 0.00 0.00 80 1012.2
20260503045708 16 206 0.0 3.2 0.00 0.00 0.00 79 1012.1
20260503045203 16 317 0.0 3.2 0.00 0.00 0.00 78 1011.9
20260503044655 16 34 4.8 4.8 0.00 0.00 0.00 78 1011.9
20260503044147 16 45 0.0 3.2 0.00 0.00 0.00 78 1011.9
20260503043636 16 326 1.6 3.2 0.00 0.00 0.00 79 1011.9
20260503043131 16 50 0.0 1.6 0.00 0.00 0.00 79 1011.8
20260503042617 16 63 1.6 1.6 0.00 0.00 0.00 80 1011.9
20260503042112 16 345 3.2 3.2 0.00 0.00 0.00 80 1011.9
20260503041558 16 349 0.0 3.2 0.00 0.00 0.00 79 1012.1
20260503041053 16 30 1.6 1.6 0.00 0.00 0.00 78 1012.1
20260503040539 16 22 0.0 3.2 0.00 0.00 0.00 79 1012.2
20260503040034 16 339 1.6 3.2 0.00 0.00 0.00 78 1012.0
20260503035525 16 79 0.0 3.2 0.00 0.00 0.00 79 1011.9
20260503035020 17 356 1.6 3.2 0.00 0.00 0.00 78 1012.0
20260503034512 17 218 3.2 3.2 0.00 0.00 0.00 77 1011.9
20260503034007 17 50 0.0 3.2 0.00 0.00 0.00 77 1011.8
20260503033453 17 344 0.0 1.6 0.00 0.00 0.00 77 1011.8
20260503032654 17 323 3.2 4.8 0.00 0.00 0.00 76 1011.7
20260503031930 17 9 0.0 1.6 0.00 0.00 0.00 75 1011.5
20260503031422 17 13 1.6 3.2 0.00 0.00 0.00 74 1011.5
20260503030917 17 314 1.6 1.6 0.00 0.00 0.00 73 1011.6
20260503030402 17 346 0.0 3.2 0.00 0.00 0.00 73 1011.4
20260503025856 18 240 0.0 3.2 0.00 0.00 0.00 73 1011.5
20260503025609 18 228 0.0 4.8 0.00 0.00 0.00 73 1011.7
20260503024843 18 194 6.4 8.0 0.00 0.00 0.00 72 1011.5
20260503024334 18 206 3.2 6.4 0.00 0.00 0.00 72 1011.5
20260503023826 18 221 8.0 8.0 0.00 0.00 0.00 72 1011.6
20260503023316 18 225 4.8 6.4 0.00 0.00 0.00 71 1011.8
20260503022810 18 217 4.8 6.4 0.00 0.00 0.00 70 1011.5
20260503022256 18 164 4.8 20.9 0.00 0.00 0.00 69 1011.5
20260503021751 19 209 6.4 16.1 0.00 0.00 0.00 67 1011.5
20260503021243 20 293 9.7 9.7 0.00 0.00 0.00 65 1011.4
20260503020738 20 231 6.4 8.0 0.00 0.00 0.00 65 1011.1
20260503020231 20 167 3.2 6.4 0.00 0.00 0.00 65 1010.9
20260503015723 21 216 6.4 9.7 0.00 0.00 0.00 63 1010.7
20260503015432 21 191 3.2 3.2 0.00 0.00 0.00 61 1010.6
20260503014706 21 175 3.2 3.2 0.00 0.00 0.00 61 1010.3
20260503014152 21 308 0.0 3.2 0.00 0.00 0.00 62 1010.4
20260503013647 21 236 3.2 4.8 0.00 0.00 0.00 62 1010.5
20260503013133 21 233 4.8 6.4 0.00 0.00 0.00 62 1010.6
20260503012848 21 245 0.0 3.2 0.00 0.00 0.00 61 1010.1
20260503012120 21 235 1.6 4.8 0.00 0.00 0.00 60 1010.2
20260503011616 21 318 0.0 4.8 0.00 0.00 0.00 60 1010.2
20260503011108 21 211 0.0 3.2 0.00 0.00 0.00 60 1010.3
20260503010823 21 191 3.2 6.4 0.00 0.00 0.00 60 1010.2
20260503010049 22 237 3.2 4.8 0.00 0.00 0.00 59 1010.3
20260503005544 22 226 1.6 3.2 0.00 0.00 0.00 59 1010.1
20260503005035 22 222 4.8 6.4 0.00 0.00 0.00 58 1010.3
20260503004531 22 223 4.8 6.4 0.00 0.00 0.00 58 1010.3
20260503004020 22 200 4.8 4.8 0.00 0.00 0.00 58 1010.2
20260503003515 22 113 0.0 3.2 0.00 0.00 0.00 58 1010.3
20260503003220 22 265 1.6 4.8 0.00 0.00 0.00 57 1010.2
20260503002456 22 312 3.2 3.2 0.00 0.00 0.00 58 1010.3
20260503001942 22 299 3.2 4.8 0.00 0.00 0.00 59 1010.3
20260503001436 21 177 3.2 8.0 0.00 0.00 0.00 58 1010.4
20260503000922 22 191 3.2 3.2 0.00 0.00 0.00 59 1010.5
20260503000418 22 258 3.2 4.8 0.00 0.00 0.00 58 1010.5
20260503000129 22 198 0.0 3.2 0.00 0.00 0.00 58 1010.3
20260502235404 22 191 3.2 4.8 0.00 0.00 0.00 57 1010.3
20260502235117 22 217 4.8 8.0 0.00 0.00 0.00 58 1010.4
20260502234350 22 234 1.6 8.0 0.00 0.00 0.00 57 1010.5
20260502233840 22 192 4.8 6.4 0.00 0.00 0.00 57 1010.5
20260502233335 22 167 0.0 6.4 0.00 0.00 0.00 56 1010.6
20260502232827 22 161 1.6 4.8 0.00 0.00 0.00 57 1010.6
20260502232322 22 244 1.6 4.8 0.00 0.00 0.00 54 1010.9
20260502231808 22 278 0.0 3.2 0.00 0.00 0.00 55 1010.6
20260502231750 22 148 1.6 4.8 0.00 0.00 0.00 54 1010.9
20260502230754 22 262 3.2 6.4 0.00 0.00 0.00 55 1011.0
20260502230243 22 108 3.2 3.2 0.00 0.00 0.00 57 1010.8
20260502225738 22 220 3.2 3.2 0.00 0.00 0.00 58 1011.0
20260502225230 21 116 1.6 3.2 0.00 0.00 0.00 59 1011.3
20260502224721 21 334 1.6 6.4 0.00 0.00 0.00 60 1011.3
20260502224440 21 264 3.2 6.4 0.00 0.00 0.00 60 1011.3
20260502223703 21 119 1.6 3.2 0.00 0.00 0.00 60 1011.5
20260502223158 21 316 4.8 6.4 0.00 0.00 0.00 59 1011.5
20260502222650 21 310 3.2 3.2 0.00 0.00 0.00 59 1011.6
20260502222145 21 229 6.4 8.0 0.00 0.00 0.00 60 1011.5
20260502221631 21 256 4.8 6.4 0.00 0.00 0.00 60 1011.6
20260502221126 20 298 3.2 6.4 0.00 0.00 0.00 61 1011.6
20260502220618 21 214 6.4 9.7 0.00 0.00 0.00 59 1012.0
20260502220113 21 192 1.6 4.8 0.00 0.00 0.00 60 1011.9
20260502215606 20 205 3.2 8.0 0.00 0.00 0.00 60 1012.0
20260502215100 20 205 8.0 8.0 0.00 0.00 0.00 61 1012.3
20260502214546 20 271 1.6 6.4 0.00 0.00 0.00 63 1012.2
20260502214042 20 190 3.2 8.0 0.00 0.00 0.00 63 1012.2
20260502213527 19 232 6.4 8.0 0.00 0.00 0.00 64 1012.6
20260502213244 18 224 6.4 6.4 0.00 0.00 0.00 64 1012.5
20260502212735 18 213 4.8 11.3 0.00 0.00 0.00 63 1012.6
20260502212004 19 202 6.4 9.7 0.00 0.00 0.00 63 1012.6
20260502211458 18 285 3.2 8.0 0.00 0.00 0.00 66 1012.9
20260502210951 18 225 4.8 6.4 0.00 0.00 0.00 65 1012.7
20260502210702 18 48 3.2 6.4 0.00 0.00 0.00 66 1013.0
20260502205931 18 109 3.2 9.7 0.00 0.00 0.00 66 1013.0
20260502205647 18 178 1.6 6.4 0.00 0.00 0.00 67 1013.1
20260502204918 17 170 3.2 8.0 0.00 0.00 0.00 67 1013.3
20260502204410 17 276 6.4 6.4 0.00 0.00 0.00 68 1013.5
20260502203859 17 324 3.2 6.4 0.00 0.00 0.00 69 1013.4